Location: Peterborough
(44.3091°N, 78.3197°W)
Time: 19:12:39
(UTC-04:00)

Altair - Pass Details

Date: 24 March 2023
Orbit: 1501 x 1682 km, 47.2° (Epoch: 04 June)

Event Time Altitude Azimuth Distance (km) Brightness Sun altitude
Rises 06:18:09 0° 214° (SW) 4,744 9.6 -9.9°
Reaches altitude 10° 06:21:25 10° 208° (SSW) 3,738 9.2 -9.4°
Maximum altitude 06:30:09 45° 140° (SE) 1,980 8.4 -7.8°
Drops below altitude 10° 06:38:42 10° 72° (ENE) 3,661 11.2 -6.3°
Sets 06:41:51 0° 66° (ENE) 4,639 11.8 -5.8°
